EW9200 Weather Reports


Display with metric or nautical units.
time (UTC)temp
F
wind
direction
speed
MPH
gust
MPH
rain 1hr
in
rain 24hr
in
rain mn
in
humidity
%
barometer
mb
20260508081028 44 0 0.0 0.0 0.00 0.00 0.00 91 1011.0
20260508080530 44 0 0.0 0.0 0.00 0.00 0.00 91 1011.1
20260508080040 44 0 0.0 0.0 0.00 0.00 0.00 91 1011.0
20260508075527 44 0 0.0 0.0 0.00 0.00 0.00 90 1011.1
20260508075026 44 0 0.0 0.0 0.00 0.00 0.00 89 1011.1
20260508074549 45 0 0.0 0.0 0.00 0.00 0.00 89 1011.0
20260508074027 45 0 0.0 0.0 0.00 0.00 0.00 89 1011.1
20260508073531 46 0 0.0 0.0 0.00 0.00 0.00 89 1011.2
20260508073041 46 0 0.0 0.0 0.00 0.00 0.00 88 1011.3
20260508072528 46 0 0.0 1.0 0.00 0.00 0.00 88 1011.2
20260508072028 46 0 0.0 1.0 0.00 0.00 0.00 89 1011.3
20260508071543 46 0 0.0 0.0 0.00 0.00 0.00 89 1011.3
20260508071028 46 0 0.0 1.0 0.00 0.00 0.00 89 1011.3
20260508070527 46 0 0.0 1.0 0.00 0.00 0.00 89 1011.2
20260508070043 46 0 0.0 0.0 0.00 0.00 0.00 89 1011.4
20260508065527 46 0 0.0 2.0 0.00 0.00 0.00 89 1011.4
20260508065026 46 0 0.0 2.0 0.00 0.00 0.00 89 1011.4
20260508064544 46 0 0.0 0.0 0.00 0.00 0.00 89 1011.4
20260508064028 46 0 0.0 0.0 0.00 0.00 0.00 89 1011.4
20260508063527 46 0 0.0 0.0 0.00 0.00 0.00 88 1011.4
20260508063040 46 0 0.0 0.0 0.00 0.00 0.00 88 1011.4
20260508062529 46 0 0.0 0.0 0.00 0.00 0.00 89 1011.4
20260508062030 46 0 0.0 1.0 0.00 0.00 0.00 89 1011.4
20260508061543 46 0 0.0 1.0 0.00 0.00 0.00 89 1011.4
20260508061030 46 0 0.0 1.0 0.00 0.00 0.00 88 1011.6
20260508060530 46 0 0.0 0.0 0.00 0.00 0.00 89 1011.5
20260508060042 46 0 0.0 0.0 0.00 0.00 0.00 88 1011.5
20260508055533 46 0 0.0 0.0 0.00 0.00 0.00 87 1011.5
20260508055031 47 0 0.0 0.0 0.00 0.00 0.00 87 1011.5
20260508054542 47 0 0.0 0.0 0.00 0.00 0.00 86 1011.4
20260508054030 47 0 0.0 0.0 0.00 0.00 0.00 87 1011.6
20260508053530 47 0 0.0 1.0 0.00 0.00 0.00 86 1011.5
20260508053037 47 0 0.0 1.0 0.00 0.00 0.00 86 1011.4
20260508052533 47 0 0.0 1.0 0.00 0.00 0.00 86 1011.3
20260508052033 47 0 0.0 1.0 0.00 0.00 0.00 86 1011.3
20260508051541 47 0 0.0 1.0 0.00 0.00 0.00 85 1011.5
20260508051030 47 0 0.0 1.0 0.00 0.00 0.00 85 1011.3
20260508050530 48 0 0.0 1.0 0.00 0.00 0.00 84 1011.2
20260508050042 48 0 0.0 2.0 0.00 0.00 0.00 84 1011.2
20260508045536 48 0 0.0 2.0 0.00 0.00 0.00 84 1011.3
20260508045030 48 143 0.0 2.0 0.00 0.00 0.00 83 1011.2
20260508044545 48 0 0.0 1.0 0.00 0.00 0.00 83 1011.2
20260508044028 49 0 0.0 2.0 0.00 0.00 0.00 83 1011.4
20260508043532 49 0 0.0 2.0 0.00 0.00 0.00 82 1011.2
20260508043045 49 0 0.0 1.0 0.00 0.00 0.00 82 1011.4
20260508042531 49 0 0.0 1.0 0.00 0.00 0.00 82 1011.3
20260508042030 50 0 0.0 1.0 0.00 0.00 0.00 81 1011.3
20260508041544 50 38 0.0 2.0 0.00 0.00 0.00 80 1011.1
20260508041032 50 0 0.0 2.0 0.00 0.00 0.00 80 1011.2
20260508040531 50 29 0.0 1.0 0.00 0.00 0.00 80 1011.2
20260508040044 50 0 0.0 2.0 0.00 0.00 0.00 80 1011.0
20260508035531 50 0 0.0 2.0 0.00 0.00 0.00 79 1010.8
20260508035032 51 358 1.0 2.0 0.00 0.00 0.00 79 1010.7
20260508034544 51 236 0.0 2.0 0.00 0.00 0.00 79 1010.8
20260508034030 51 244 0.0 4.0 0.00 0.00 0.00 79 1010.8
20260508033529 51 240 1.0 4.0 0.00 0.00 0.00 78 1010.7
20260508033044 51 190 1.0 4.0 0.00 0.00 0.00 78 1010.7
20260508032529 51 0 1.0 4.0 0.00 0.00 0.00 78 1010.9
20260508032028 51 213 0.0 1.0 0.00 0.00 0.00 77 1010.7
20260508031541 51 220 0.0 3.0 0.00 0.00 0.00 76 1010.8
20260508031030 51 233 0.0 3.0 0.00 0.00 0.00 76 1010.8
20260508030530 51 205 1.0 3.0 0.00 0.00 0.00 75 1010.7
20260508030046 51 219 1.0 3.0 0.00 0.00 0.00 75 1010.7
20260508025532 52 214 0.0 2.0 0.00 0.00 0.00 73 1010.6
20260508025030 52 0 0.0 2.0 0.00 0.00 0.00 73 1010.6
20260508024541 52 219 1.0 2.0 0.00 0.00 0.00 73 1010.4
20260508024030 52 199 0.0 3.0 0.00 0.00 0.00 72 1010.4
20260508023530 52 0 0.0 3.0 0.00 0.00 0.00 72 1010.5
20260508023036 52 234 0.0 3.0 0.00 0.00 0.00 72 1010.5
20260508022531 52 235 0.0 3.0 0.00 0.00 0.00 71 1010.5
20260508022033 52 174 0.0 3.0 0.00 0.00 0.00 71 1010.4
20260508021548 51 229 0.0 3.0 0.00 0.00 0.00 71 1010.4
20260508021033 50 195 1.0 3.0 0.00 0.00 0.00 73 1010.5
20260508020530 49 233 0.0 3.0 0.00 0.00 0.00 77 1010.4
20260508020040 48 0 0.0 1.0 0.00 0.00 0.00 81 1010.3
20260508015530 47 0 0.0 0.0 0.00 0.00 0.00 81 1010.1
20260508015031 47 0 0.0 0.0 0.00 0.00 0.00 81 1010.1
20260508014543 48 0 0.0 0.0 0.00 0.00 0.00 80 1010.0
20260508014032 48 0 0.0 0.0 0.00 0.00 0.00 79 1010.0
20260508013530 48 0 0.0 0.0 0.00 0.00 0.00 79 1010.0
20260508013043 49 0 0.0 0.0 0.00 0.00 0.00 78 1009.8
20260508012530 49 0 0.0 0.0 0.00 0.00 0.00 77 1009.9
20260508012030 50 0 0.0 0.0 0.00 0.00 0.00 76 1009.8
20260508011538 50 0 0.0 0.0 0.00 0.00 0.00 75 1009.6
20260508011031 51 0 0.0 0.0 0.00 0.00 0.00 74 1009.7
20260508010530 52 0 0.0 0.0 0.00 0.00 0.00 73 1009.8
20260508010042 52 0 0.0 0.0 0.00 0.00 0.00 72 1009.7
20260508005530 53 0 0.0 1.0 0.00 0.00 0.00 70 1009.6
20260508005030 54 0 0.0 1.0 0.00 0.00 0.00 70 1009.7
20260508004542 54 356 0.0 1.0 0.00 0.00 0.00 69 1009.7
20260508004029 55 0 0.0 0.0 0.00 0.00 0.00 68 1009.6
20260508003529 55 0 0.0 0.0 0.00 0.00 0.00 67 1009.6
20260508003043 56 0 0.0 1.0 0.00 0.00 0.00 64 1009.5
20260508002529 57 0 0.0 1.0 0.00 0.00 0.00 63 1009.6
20260508002030 57 356 0.0 1.0 0.00 0.00 0.00 61 1009.6
20260508001540 58 0 0.0 1.0 0.00 0.00 0.00 58 1009.7
20260508001030 58 0 0.0 1.0 0.00 0.00 0.00 59 1009.6
20260508000530 58 356 0.0 1.0 0.00 0.00 0.00 59 1009.5
20260508000041 58 0 0.0 1.0 0.00 0.00 0.00 58 1009.6
20260507235530 59 316 0.0 2.0 0.00 0.00 0.00 57 1009.6
20260507235030 59 306 0.0 3.0 0.00 0.00 0.00 58 1009.7
20260507234544 59 0 0.0 3.0 0.00 0.00 0.00 59 1009.6
20260507234029 59 117 1.0 3.0 0.00 0.00 0.00 58 1009.6
20260507233530 59 0 1.0 4.0 0.00 0.00 0.00 58 1009.7
20260507233045 59 344 1.0 5.0 0.00 0.00 0.00 57 1009.7
20260507232530 59 288 2.0 5.0 0.00 0.00 0.00 58 1009.7
20260507232029 59 299 1.0 5.0 0.00 0.00 0.00 58 1009.8
20260507231547 59 329 1.0 4.0 0.00 0.00 0.00 59 1009.8
20260507231030 59 293 2.0 5.0 0.00 0.00 0.00 58 1009.8
20260507230530 59 297 1.0 5.0 0.00 0.00 0.00 57 1009.7
20260507230047 59 44 2.0 5.0 0.00 0.00 0.00 56 1009.7
20260507225533 59 337 2.0 6.0 0.00 0.00 0.00 55 1009.5
20260507225030 60 337 2.0 9.0 0.00 0.00 0.00 53 1009.5
20260507224545 62 356 3.0 11.0 0.00 0.00 0.00 50 1009.7
20260507224030 62 165 2.0 11.0 0.00 0.00 0.00 50 1009.5
20260507223531 62 198 4.0 9.0 0.00 0.00 0.00 51 1009.4
20260507223037 62 25 4.0 12.0 0.00 0.00 0.00 52 1009.3
20260507222530 62 169 4.0 12.0 0.00 0.00 0.00 52 1009.4
20260507222029 63 250 4.0 11.0 0.00 0.00 0.00 52 1009.6
20260507221541 63 302 5.0 12.0 0.00 0.00 0.00 52 1009.6
20260507221029 63 238 4.0 13.0 0.00 0.00 0.00 53 1009.5
20260507220530 63 25 5.0 13.0 0.00 0.00 0.00 52 1009.5
20260507220041 63 202 4.0 16.0 0.00 0.00 0.00 53 1009.7
20260507215530 63 205 3.0 16.0 0.00 0.00 0.00 55 1009.5
20260507215029 62 222 5.0 13.0 0.00 0.00 0.00 55 1009.6
20260507214602 61 336 3.0 13.0 0.00 0.00 0.00 57 1009.6
20260507214033 61 11 5.0 16.0 0.00 0.00 0.00 57 1009.8
20260507213531 61 253 7.0 16.0 0.00 0.00 0.00 58 1009.9
20260507213046 61 241 4.0 15.0 0.00 0.00 0.00 59 1010.0
20260507212529 61 286 5.0 15.0 0.00 0.00 0.00 58 1010.1
20260507212030 60 226 7.0 15.0 0.00 0.00 0.00 59 1010.0
20260507211550 60 161 5.0 14.0 0.00 0.00 0.00 60 1010.2
20260507211029 60 132 4.0 15.0 0.00 0.00 0.00 59 1010.3
20260507210532 61 248 5.0 15.0 0.00 0.00 0.00 58 1010.2
20260507210053 61 200 7.0 15.0 0.00 0.00 0.00 57 1010.1
20260507205530 60 338 6.0 14.0 0.00 0.00 0.00 59 1010.2
20260507205029 60 236 7.0 21.0 0.00 0.00 0.00 59 1010.3
20260507204539 60 148 6.0 21.0 0.00 0.00 0.00 59 1010.4
20260507204032 60 200 3.0 14.0 0.00 0.00 0.00 60 1010.4
20260507203529 59 194 5.0 14.0 0.00 0.00 0.00 59 1010.4
20260507203049 59 169 5.0 14.0 0.00 0.00 0.00 59 1010.4
20260507202529 59 165 5.0 13.0 0.00 0.00 0.00 61 1010.6
20260507202031 59 265 5.0 13.0 0.00 0.00 0.00 60 1010.7
20260507201545 58 196 4.0 15.0 0.00 0.00 0.00 61 1011.0
20260507201029 58 280 4.0 15.0 0.00 0.00 0.00 63 1011.0
20260507200530 58 248 7.0 15.0 0.00 0.00 0.00 61 1011.1
20260507200044 58 212 5.0 13.0 0.00 0.00 0.00 63 1011.3
20260507195529 57 32 3.0 15.0 0.00 0.00 0.00 64 1011.4
20260507195030 57 200 5.0 17.0 0.00 0.00 0.00 62 1011.5
20260507194612 57 236 6.0 19.0 0.00 0.00 0.00 64 1011.7
20260507194029 56 276 6.0 19.0 0.00 0.00 0.00 63 1011.7
20260507193530 57 277 6.0 14.0 0.00 0.00 0.00 61 1011.8
20260507193042 57 151 6.0 12.0 0.00 0.00 0.00 62 1011.9
20260507192531 56 293 4.0 13.0 0.00 0.00 0.00 64 1012.1
20260507192033 56 319 4.0 14.0 0.00 0.00 0.00 65 1012.3
20260507191547 55 305 6.0 14.0 0.00 0.00 0.00 65 1012.2
20260507191031 55 213 5.0 16.0 0.00 0.00 0.00 64 1012.2
20260507190530 55 29 6.0 16.0 0.00 0.00 0.00 63 1012.3
20260507190040 55 276 4.0 17.0 0.00 0.00 0.00 63 1012.5
20260507185530 56 178 6.0 18.0 0.00 0.00 0.00 62 1012.6
20260507185029 56 213 8.0 18.0 0.00 0.00 0.00 61 1012.5
20260507184548 56 322 7.0 15.0 0.00 0.00 0.00 62 1012.5
20260507184028 56 133 7.0 18.0 0.00 0.00 0.00 63 1012.7
20260507183528 56 338 5.0 18.0 0.00 0.00 0.00 62 1012.6
20260507183045 56 214 6.0 15.0 0.00 0.00 0.00 60 1012.6
20260507182529 57 177 6.0 13.0 0.00 0.00 0.00 59 1012.5
20260507182030 57 300 4.0 15.0 0.00 0.00 0.00 56 1012.5
20260507181543 57 164 5.0 15.0 0.00 0.00 0.00 56 1012.7
20260507181031 57 242 6.0 12.0 0.00 0.00 0.00 54 1012.5
20260507180529 57 217 5.0 12.0 0.00 0.00 0.00 53 1012.4
20260507180042 58 194 5.0 13.0 0.00 0.00 0.00 51 1012.7
20260507175528 58 311 4.0 13.0 0.00 0.00 0.00 50 1012.5
20260507175028 57 187 6.0 13.0 0.00 0.00 0.00 51 1012.4
20260507174544 57 221 3.0 12.0 0.00 0.00 0.00 51 1012.7
20260507174027 57 150 5.0 12.0 0.00 0.00 0.00 50 1012.7
20260507173533 57 302 3.0 9.0 0.00 0.00 0.00 51 1012.9
20260507173041 57 240 3.0 8.0 0.00 0.00 0.00 48 1012.7
20260507172529 57 51 4.0 8.0 0.00 0.00 0.00 46 1012.8
20260507172028 57 78 3.0 12.0 0.00 0.00 0.00 47 1012.8
20260507171548 57 11 2.0 12.0 0.00 0.00 0.00 47 1013.0
20260507171028 58 227 3.0 10.0 0.00 0.00 0.00 46 1013.2
20260507170527 58 244 3.0 9.0 0.00 0.00 0.00 48 1013.3
20260507170044 58 259 4.0 11.0 0.00 0.00 0.00 47 1013.2
20260507165529 58 199 4.0 11.0 0.00 0.00 0.00 48 1013.2
20260507165027 58 217 1.0 9.0 0.00 0.00 0.00 47 1013.3
20260507164541 58 231 3.0 9.0 0.00 0.00 0.00 48 1013.3
20260507164028 58 195 4.0 9.0 0.00 0.00 0.00 46 1013.4
20260507163531 58 214 2.0 7.0 0.00 0.00 0.00 47 1013.5
20260507163043 59 314 3.0 7.0 0.00 0.00 0.00 47 1013.6
20260507162527 59 240 1.0 5.0 0.00 0.00 0.00 50 1013.8
20260507162028 58 134 3.0 7.0 0.00 0.00 0.00 49 1013.8
20260507161546 58 283 1.0 7.0 0.00 0.00 0.00 48 1013.9
20260507161028 58 243 2.0 9.0 0.00 0.00 0.00 52 1013.9
20260507160530 58 213 3.0 9.0 0.00 0.00 0.00 49 1014.1
20260507160048 58 174 2.0 6.0 0.00 0.00 0.00 51 1014.0
20260507155531 57 223 3.0 8.0 0.00 0.00 0.00 50 1014.2
20260507155028 57 314 2.0 9.0 0.00 0.00 0.00 51 1014.3
20260507154542 56 193 3.0 9.0 0.00 0.00 0.00 53 1014.3
20260507154030 56 170 2.0 8.0 0.00 0.00 0.00 51 1014.5
20260507153528 56 221 3.0 10.0 0.00 0.00 0.00 50 1014.5
20260507153042 56 210 4.0 10.0 0.00 0.00 0.00 51 1014.4
20260507152528 56 127 2.0 8.0 0.00 0.00 0.00 53 1014.4
20260507152028 56 136 3.0 8.0 0.00 0.00 0.00 50 1014.5
20260507151536 55 357 1.0 7.0 0.00 0.00 0.00 52 1014.5
20260507151028 55 141 1.0 7.0 0.00 0.00 0.00 55 1014.6
20260507150528 55 136 2.0 4.0 0.00 0.00 0.00 53 1014.5
20260507150043 55 230 1.0 8.0 0.00 0.00 0.00 52 1014.6
20260507145527 54 145 2.0 8.0 0.00 0.00 0.00 49 1014.6
20260507145029 54 205 1.0 5.0 0.00 0.00 0.00 54 1014.7
20260507144543 53 171 1.0 5.0 0.00 0.00 0.00 55 1014.9
20260507144031 53 259 2.0 5.0 0.00 0.00 0.00 53 1015.0
20260507143528 53 174 2.0 6.0 0.00 0.00 0.00 56 1015.1
20260507143043 52 215 1.0 6.0 0.00 0.00 0.00 54 1015.1
20260507142527 52 179 2.0 6.0 0.00 0.00 0.00 56 1015.2
20260507142030 52 150 3.0 6.0 0.00 0.00 0.00 55 1015.2
20260507141543 52 188 3.0 6.0 0.00 0.00 0.00 56 1015.4
20260507141029 52 179 2.0 6.0 0.00 0.00 0.00 56 1015.3
20260507140528 51 267 1.0 6.0 0.00 0.00 0.00 59 1015.3
20260507140039 51 214 1.0 6.0 0.00 0.00 0.00 59 1015.1
20260507135530 51 153 2.0 5.0 0.00 0.00 0.00 56 1015.2
20260507135030 51 188 2.0 5.0 0.00 0.00 0.00 57 1015.3
20260507134541 51 227 1.0 4.0 0.00 0.00 0.00 58 1015.3
20260507134028 50 178 1.0 4.0 0.00 0.00 0.00 59 1015.4
20260507133528 49 229 2.0 4.0 0.00 0.00 0.00 59 1015.6
20260507133044 49 243 1.0 3.0 0.00 0.00 0.00 59 1015.6
20260507132527 49 208 1.0 4.0 0.00 0.00 0.00 63 1015.7
20260507132027 49 140 1.0 4.0 0.00 0.00 0.00 65 1015.7
20260507131603 49 139 1.0 2.0 0.00 0.00 0.00 66 1015.7
20260507131029 48 172 0.0 2.0 0.00 0.00 0.00 67 1015.7
20260507130528 48 211 0.0 2.0 0.00 0.00 0.00 64 1015.9
20260507130042 48 194 0.0 2.0 0.00 0.00 0.00 70 1015.6
20260507125528 47 0 0.0 1.0 0.00 0.00 0.00 72 1015.7
20260507125029 47 0 0.0 1.0 0.00 0.00 0.00 71 1015.8
20260507124535 46 0 0.0 1.0 0.00 0.00 0.00 71 1015.7
20260507124029 46 0 0.0 1.0 0.00 0.00 0.00 72 1015.6
20260507123527 45 0 0.0 0.0 0.00 0.00 0.00 76 1015.6
20260507123044 44 0 0.0 0.0 0.00 0.00 0.00 79 1015.5
20260507122526 43 0 0.0 0.0 0.00 0.00 0.00 83 1015.3
20260507122029 41 0 0.0 0.0 0.00 0.00 0.00 90 1015.2
20260507121544 39 0 0.0 1.0 0.00 0.00 0.00 94 1015.4
20260507121028 37 0 0.0 1.0 0.00 0.00 0.00 97 1015.2
20260507120527 35 0 0.0 0.0 0.00 0.00 0.00 97 1015.2
20260507120042 34 0 0.0 0.0 0.00 0.00 0.00 97 1015.3
20260507115529 33 0 0.0 0.0 0.00 0.00 0.00 96 1015.3
20260507115032 32 0 0.0 0.0 0.00 0.00 0.00 96 1015.3
20260507114541 32 0 0.0 0.0 0.00 0.00 0.00 96 1015.2
20260507114029 31 0 0.0 0.0 0.00 0.00 0.00 96 1015.3
20260507113529 31 0 0.0 0.0 0.00 0.00 0.00 96 1015.4
20260507113036 31 0 0.0 0.0 0.00 0.00 0.00 95 1015.3
20260507112527 30 0 0.0 0.0 0.00 0.00 0.00 95 1015.1
20260507112027 30 0 0.0 0.0 0.00 0.00 0.00 95 1015.3
20260507111542 30 0 0.0 0.0 0.00 0.00 0.00 95 1015.2
20260507111030 30 0 0.0 0.0 0.00 0.00 0.00 95 1015.2
20260507110530 30 0 0.0 0.0 0.00 0.00 0.00 95 1015.2
20260507110041 30 0 0.0 0.0 0.00 0.00 0.00 95 1015.2
20260507105530 29 0 0.0 0.0 0.00 0.00 0.00 95 1015.1
20260507105030 29 0 0.0 0.0 0.00 0.00 0.00 94 1015.1
20260507104540 29 0 0.0 0.0 0.00 0.00 0.00 94 1015.1
20260507104030 29 0 0.0 0.0 0.00 0.00 0.00 94 1015.2
20260507103531 29 0 0.0 0.0 0.00 0.00 0.00 94 1015.1
20260507103045 29 0 0.0 2.0 0.00 0.00 0.00 94 1015.1
20260507102531 29 0 0.0 2.0 0.00 0.00 0.00 94 1015.2
20260507102032 29 0 0.0 0.0 0.00 0.00 0.00 93 1015.2
20260507101544 29 0 0.0 0.0 0.00 0.00 0.00 93 1015.3
20260507101030 30 0 0.0 0.0 0.00 0.00 0.00 93 1015.2
20260507100533 30 0 0.0 0.0 0.00 0.00 0.00 93 1015.4
20260507100049 30 0 0.0 0.0 0.00 0.00 0.00 93 1015.3
20260507095531 30 0 0.0 0.0 0.00 0.00 0.00 93 1015.3
20260507095032 30 0 0.0 0.0 0.00 0.00 0.00 93 1015.3
20260507094548 30 0 0.0 0.0 0.00 0.00 0.00 93 1015.3
20260507094030 30 0 0.0 0.0 0.00 0.00 0.00 93 1015.2
20260507093530 30 0 0.0 0.0 0.00 0.00 0.00 92 1015.4
20260507093049 30 0 0.0 0.0 0.00 0.00 0.00 92 1015.4
20260507092527 30 0 0.0 0.0 0.00 0.00 0.00 92 1015.5
20260507092031 30 0 0.0 0.0 0.00 0.00 0.00 92 1015.4
20260507091538 31 0 0.0 0.0 0.00 0.00 0.00 92 1015.5
20260507091031 31 0 0.0 0.0 0.00 0.00 0.00 92 1015.5
20260507090530 31 0 0.0 0.0 0.00 0.00 0.00 91 1015.5
20260507090043 31 0 0.0 0.0 0.00 0.00 0.00 91 1015.7
20260507085531 31 0 0.0 0.0 0.00 0.00 0.00 91 1015.6
20260507085031 31 0 0.0 0.0 0.00 0.00 0.00 91 1015.5
20260507084546 31 0 0.0 0.0 0.00 0.00 0.00 91 1015.4
20260507084030 31 0 0.0 0.0 0.00 0.00 0.00 90 1015.6
20260507083532 32 0 0.0 0.0 0.00 0.00 0.00 90 1015.5
20260507083041 32 0 0.0 0.0 0.00 0.00 0.00 90 1015.5
20260507082530 32 0 0.0 0.0 0.00 0.00 0.00 90 1015.4
20260507082030 32 0 0.0 0.0 0.00 0.00 0.00 90 1015.4
20260507081543 31 0 0.0 0.0 0.00 0.00 0.00 88 1015.5